owner,sensor,date,latitude,longitude,vertical_datum,mass_concentration_of_oxygen_in_sea_water,qcFlag 
DISL,ioos:station:DISL:PPTA:1,2012-06-01T00:00:00Z,30.2791,-87.5561,1.076,7.44,1111122 
DISL,ioos:station:DISL:PPTA:1,2012-06-01T00:30:00Z,30.2791,-87.5561,1.101,7.21,1111122 
DISL,ioos:station:DISL:PPTA:1,2012-06-01T01:00:00Z,30.2791,-87.5561,1.11,6.83,1111122 
DISL,ioos:station:DISL:PPTA:1,2012-06-01T01:30:00Z,30.2791,-87.5561,1.215,6.78,1111122 
DISL,ioos:station:DISL:PPTA:1,2012-06-01T02:00:00Z,30.2791,-87.5561,1.111,6.77,1111122 
DISL,ioos:station:DISL:PPTA:1,2012-06-01T02:30:00Z,30.2791,-87.5561,1.089,6.83,1111122 
DISL,ioos:station:DISL:PPTA:1,2012-06-01T03:00:00Z,30.2791,-87.5561,1.066,6.68,1111122 
DISL,ioos:station:DISL:PPTA:1,2012-06-01T03:30:00Z,30.2791,-87.5561,1.285,6.31,1111122 
DISL,ioos:station:DISL:PPTA:1,2012-06-01T04:00:00Z,30.2791,-87.5561,1.173,6.56,1111122 
DISL,ioos:station:DISL:PPTA:1,2012-06-01T04:30:00Z,30.2791,-87.5561,1.182,6.15,1111122 
DISL,ioos:station:DISL:PPTA:1,2012-06-01T05:00:00Z,30.2791,-87.5561,1.24,6.13,1111122 
DISL,ioos:station:DISL:PPTA:1,2012-06-01T05:30:00Z,30.2791,-87.5561,1.163,6.26,1111122 
DISL,ioos:station:DISL:PPTA:1,2012-06-01T06:00:00Z,30.2791,-87.5561,1.199,6.67,1111122 
DISL,ioos:station:DISL:PPTA:1,2012-06-01T06:30:00Z,30.2791,-87.5561,1.219,6.85,1111122 
DISL,ioos:station:DISL:PPTA:1,2012-06-01T07:00:00Z,30.2791,-87.5561,1.251,6.58,1111122 
DISL,ioos:station:DISL:PPTA:1,2012-06-01T07:30:00Z,30.2791,-87.5561,1.283,6.65,1111122 
DISL,ioos:station:DISL:PPTA:1,2012-06-01T08:00:00Z,30.2791,-87.5561,1.301,6.54,1111122 
DISL,ioos:station:DISL:PPTA:1,2012-06-01T08:30:00Z,30.2791,-87.5561,1.326,6.47,1111122 
DISL,ioos:station:DISL:PPTA:1,2012-06-01T09:00:00Z,30.2791,-87.5561,1.342,6.26,1111122 
DISL,ioos:station:DISL:PPTA:1,2012-06-01T09:30:00Z,30.2791,-87.5561,1.366,6.37,1111122 
DISL,ioos:station:DISL:PPTA:1,2012-06-01T10:00:00Z,30.2791,-87.5561,1.364,6.58,1111122 
DISL,ioos:station:DISL:PPTA:1,2012-06-01T10:30:00Z,30.2791,-87.5561,1.281,6.64,1111122 
DISL,ioos:station:DISL:PPTA:1,2012-06-01T11:00:00Z,30.2791,-87.5561,1.255,6.79,1111122 
DISL,ioos:station:DISL:PPTA:1,2012-06-01T11:30:00Z,30.2791,-87.5561,1.405,6.9,1111122 
DISL,ioos:station:DISL:PPTA:1,2012-06-01T12:00:00Z,30.2791,-87.5561,1.379,6.96,1111122 
DISL,ioos:station:DISL:PPTA:1,2012-06-01T12:30:00Z,30.2791,-87.5561,1.431,6.95,1111122 
DISL,ioos:station:DISL:PPTA:1,2012-06-01T13:00:00Z,30.2791,-87.5561,1.413,6.85,1111122 
DISL,ioos:station:DISL:PPTA:1,2012-06-01T13:30:00Z,30.2791,-87.5561,1.411,6.89,1111122 
DISL,ioos:station:DISL:PPTA:1,2012-06-01T14:00:00Z,30.2791,-87.5561,1.373,6.84,1111122 
DISL,ioos:station:DISL:PPTA:1,2012-06-01T14:30:00Z,30.2791,-87.5561,1.377,6.95,1111122 
DISL,ioos:station:DISL:PPTA:1,2012-06-01T15:00:00Z,30.2791,-87.5561,1.333,7.03,1111122 
DISL,ioos:station:DISL:PPTA:1,2012-06-01T15:30:00Z,30.2791,-87.5561,1.304,6.94,1111122 
DISL,ioos:station:DISL:PPTA:1,2012-06-01T16:00:00Z,30.2791,-87.5561,1.304,7.15,1111122 
DISL,ioos:station:DISL:PPTA:1,2012-06-01T16:30:00Z,30.2791,-87.5561,1.297,7.24,1111122 
DISL,ioos:station:DISL:PPTA:1,2012-06-01T17:00:00Z,30.2791,-87.5561,1.249,6.99,1111122 
DISL,ioos:station:DISL:PPTA:1,2012-06-01T17:30:00Z,30.2791,-87.5561,1.221,7.62,1111122 
DISL,ioos:station:DISL:PPTA:1,2012-06-01T18:00:00Z,30.2791,-87.5561,1.224,7.2,1111122 
DISL,ioos:station:DISL:PPTA:1,2012-06-01T18:30:00Z,30.2791,-87.5561,1.173,7.8,1111122 
DISL,ioos:station:DISL:PPTA:1,2012-06-01T19:00:00Z,30.2791,-87.5561,1.181,7.19,1111122 
DISL,ioos:station:DISL:PPTA:1,2012-06-01T19:30:00Z,30.2791,-87.5561,1.161,7.38,1111122 
DISL,ioos:station:DISL:PPTA:1,2012-06-01T20:00:00Z,30.2791,-87.5561,1.208,7.2,1111122 
DISL,ioos:station:DISL:PPTA:1,2012-06-01T20:30:00Z,30.2791,-87.5561,1.118,7.35,1111122 
DISL,ioos:station:DISL:PPTA:1,2012-06-01T21:00:00Z,30.2791,-87.5561,1.116,7.33,1111122 
DISL,ioos:station:DISL:PPTA:1,2012-06-01T21:30:00Z,30.2791,-87.5561,1.103,7.33,1111122 
DISL,ioos:station:DISL:PPTA:1,2012-06-01T22:00:00Z,30.2791,-87.5561,1.078,7.27,1111122 
DISL,ioos:station:DISL:PPTA:1,2012-06-01T22:30:00Z,30.2791,-87.5561,1.049,7.22,1111122 
DISL,ioos:station:DISL:PPTA:1,2012-06-01T23:00:00Z,30.2791,-87.5561,1.076,7.14,1111122 
DISL,ioos:station:DISL:PPTA:1,2012-06-01T23:30:00Z,30.2791,-87.5561,1.061,7.0,1111122 
DISL,ioos:station:DISL:PPTA:1,2012-06-02T00:00:00Z,30.2791,-87.5561,1.046,6.85,1111122 
DISL,ioos:station:DISL:PPTA:1,2012-06-02T00:30:00Z,30.2791,-87.5561,1.06,6.64,1111122 
DISL,ioos:station:DISL:PPTA:1,2012-06-02T01:00:00Z,30.2791,-87.5561,1.061,6.47,1111122 
DISL,ioos:station:DISL:PPTA:1,2012-06-02T01:30:00Z,30.2791,-87.5561,1.082,6.58,1111122 
DISL,ioos:station:DISL:PPTA:1,2012-06-02T02:00:00Z,30.2791,-87.5561,1.098,6.56,1111122 
DISL,ioos:station:DISL:PPTA:1,2012-06-02T02:30:00Z,30.2791,-87.5561,1.124,6.66,1111122 
DISL,ioos:station:DISL:PPTA:1,2012-06-02T03:00:00Z,30.2791,-87.5561,1.107,6.33,1111122 
DISL,ioos:station:DISL:PPTA:1,2012-06-02T03:30:00Z,30.2791,-87.5561,1.105,6.27,1111122 
DISL,ioos:station:DISL:PPTA:1,2012-06-02T04:00:00Z,30.2791,-87.5561,1.111,6.41,1111122 
DISL,ioos:station:DISL:PPTA:1,2012-06-02T04:30:00Z,30.2791,-87.5561,1.102,6.05,1111122 
DISL,ioos:station:DISL:PPTA:1,2012-06-02T05:00:00Z,30.2791,-87.5561,1.134,5.9,1111122 
DISL,ioos:station:DISL:PPTA:1,2012-06-02T05:30:00Z,30.2791,-87.5561,1.143,5.69,1111122 
DISL,ioos:station:DISL:PPTA:1,2012-06-02T06:00:00Z,30.2791,-87.5561,1.157,5.96,1111122 
DISL,ioos:station:DISL:PPTA:1,2012-06-02T06:30:00Z,30.2791,-87.5561,1.184,6.08,1111122 
DISL,ioos:station:DISL:PPTA:1,2012-06-02T07:00:00Z,30.2791,-87.5561,1.211,6.34,1111122 
DISL,ioos:station:DISL:PPTA:1,2012-06-02T07:30:00Z,30.2791,-87.5561,1.209,6.51,1111122 
DISL,ioos:station:DISL:PPTA:1,2012-06-02T08:00:00Z,30.2791,-87.5561,1.233,6.46,1111122 
DISL,ioos:station:DISL:PPTA:1,2012-06-02T08:30:00Z,30.2791,-87.5561,1.254,6.17,1111122 
DISL,ioos:station:DISL:PPTA:1,2012-06-02T09:00:00Z,30.2791,-87.5561,1.274,6.12,1111122 
DISL,ioos:station:DISL:PPTA:1,2012-06-02T09:30:00Z,30.2791,-87.5561,1.29,6.12,1111122 
DISL,ioos:station:DISL:PPTA:1,2012-06-02T10:00:00Z,30.2791,-87.5561,1.324,6.17,1111122 
DISL,ioos:station:DISL:PPTA:1,2012-06-02T10:30:00Z,30.2791,-87.5561,1.357,5.95,1111122 
DISL,ioos:station:DISL:PPTA:1,2012-06-02T11:00:00Z,30.2791,-87.5561,1.366,6.1,1111122 
DISL,ioos:station:DISL:PPTA:1,2012-06-02T11:30:00Z,30.2791,-87.5561,1.376,6.18,1111122 
DISL,ioos:station:DISL:PPTA:1,2012-06-02T12:00:00Z,30.2791,-87.5561,1.381,6.17,1111122 
DISL,ioos:station:DISL:PPTA:1,2012-06-02T12:30:00Z,30.2791,-87.5561,1.395,6.35,1111122 
DISL,ioos:station:DISL:PPTA:1,2012-06-02T13:00:00Z,30.2791,-87.5561,1.399,6.47,1111122 
DISL,ioos:station:DISL:PPTA:1,2012-06-02T13:30:00Z,30.2791,-87.5561,1.403,6.63,1111122 
DISL,ioos:station:DISL:PPTA:1,2012-06-02T14:00:00Z,30.2791,-87.5561,1.393,6.83,1111122 
DISL,ioos:station:DISL:PPTA:1,2012-06-02T14:30:00Z,30.2791,-87.5561,1.417,6.94,1111122 
DISL,ioos:station:DISL:PPTA:1,2012-06-02T15:00:00Z,30.2791,-87.5561,1.388,7.09,1111122 
DISL,ioos:station:DISL:PPTA:1,2012-06-02T15:30:00Z,30.2791,-87.5561,1.384,7.07,1111122 
DISL,ioos:station:DISL:PPTA:1,2012-06-02T16:00:00Z,30.2791,-87.5561,1.357,7.53,1111122 
DISL,ioos:station:DISL:PPTA:1,2012-06-02T16:30:00Z,30.2791,-87.5561,1.328,6.96,1111122 
DISL,ioos:station:DISL:PPTA:1,2012-06-02T17:00:00Z,30.2791,-87.5561,1.297,6.73,1111122 
DISL,ioos:station:DISL:PPTA:1,2012-06-02T17:30:00Z,30.2791,-87.5561,1.263,7.36,1111122 
DISL,ioos:station:DISL:PPTA:1,2012-06-02T18:00:00Z,30.2791,-87.5561,1.235,7.26,1111122 
DISL,ioos:station:DISL:PPTA:1,2012-06-02T18:30:00Z,30.2791,-87.5561,1.204,7.67,1111122 
DISL,ioos:station:DISL:PPTA:1,2012-06-02T19:00:00Z,30.2791,-87.5561,1.187,7.65,1111122 
DISL,ioos:station:DISL:PPTA:1,2012-06-02T19:30:00Z,30.2791,-87.5561,1.151,8.14,1111122 
DISL,ioos:station:DISL:PPTA:1,2012-06-02T20:00:00Z,30.2791,-87.5561,1.149,7.53,1111122 
DISL,ioos:station:DISL:PPTA:1,2012-06-02T20:30:00Z,30.2791,-87.5561,1.124,7.72,1111122 
DISL,ioos:station:DISL:PPTA:1,2012-06-02T21:00:00Z,30.2791,-87.5561,1.101,7.76,1111122 
DISL,ioos:station:DISL:PPTA:1,2012-06-02T21:30:00Z,30.2791,-87.5561,1.075,8.08,1111122 
DISL,ioos:station:DISL:PPTA:1,2012-06-02T22:00:00Z,30.2791,-87.5561,1.075,7.41,1111122 
DISL,ioos:station:DISL:PPTA:1,2012-06-02T22:30:00Z,30.2791,-87.5561,1.052,7.42,1111122 
DISL,ioos:station:DISL:PPTA:1,2012-06-02T23:00:00Z,30.2791,-87.5561,1.036,7.47,1111122 
DISL,ioos:station:DISL:PPTA:1,2012-06-02T23:30:00Z,30.2791,-87.5561,1.026,7.37,1111122 
DISL,ioos:station:DISL:PPTA:1,2012-06-03T00:00:00Z,30.2791,-87.5561,1.01,7.15,1111122 
DISL,ioos:station:DISL:PPTA:1,2012-06-03T00:30:00Z,30.2791,-87.5561,0.98,7.69,1111122 
DISL,ioos:station:DISL:PPTA:1,2012-06-03T01:00:00Z,30.2791,-87.5561,0.982,6.99,1111122 
DISL,ioos:station:DISL:PPTA:1,2012-06-03T01:30:00Z,30.2791,-87.5561,0.99,6.94,1111122 
DISL,ioos:station:DISL:PPTA:1,2012-06-03T02:00:00Z,30.2791,-87.5561,1.006,6.84,1111122 
DISL,ioos:station:DISL:PPTA:1,2012-06-03T02:30:00Z,30.2791,-87.5561,1.04,6.92,1111122 
DISL,ioos:station:DISL:PPTA:1,2012-06-03T03:00:00Z,30.2791,-87.5561,1.058,6.7,1111122 
DISL,ioos:station:DISL:PPTA:1,2012-06-03T03:30:00Z,30.2791,-87.5561,1.086,6.87,1111122 
DISL,ioos:station:DISL:PPTA:1,2012-06-03T04:00:00Z,30.2791,-87.5561,1.084,6.68,1111122 
DISL,ioos:station:DISL:PPTA:1,2012-06-03T04:30:00Z,30.2791,-87.5561,1.087,6.77,1111122 
DISL,ioos:station:DISL:PPTA:1,2012-06-03T05:00:00Z,30.2791,-87.5561,1.099,6.58,1111122 
DISL,ioos:station:DISL:PPTA:1,2012-06-03T05:30:00Z,30.2791,-87.5561,1.104,6.27,1111122 
DISL,ioos:station:DISL:PPTA:1,2012-06-03T06:00:00Z,30.2791,-87.5561,1.117,6.24,1111122 
DISL,ioos:station:DISL:PPTA:1,2012-06-03T06:30:00Z,30.2791,-87.5561,1.124,6.21,1111122 
DISL,ioos:station:DISL:PPTA:1,2012-06-03T07:00:00Z,30.2791,-87.5561,1.124,6.44,1111122 
DISL,ioos:station:DISL:PPTA:1,2012-06-03T07:30:00Z,30.2791,-87.5561,1.155,6.21,1111122 
DISL,ioos:station:DISL:PPTA:1,2012-06-03T08:00:00Z,30.2791,-87.5561,1.18,6.17,1111122 
DISL,ioos:station:DISL:PPTA:1,2012-06-03T08:30:00Z,30.2791,-87.5561,1.198,6.1,1111122 
DISL,ioos:station:DISL:PPTA:1,2012-06-03T09:00:00Z,30.2791,-87.5561,1.226,6.24,1111122 
DISL,ioos:station:DISL:PPTA:1,2012-06-03T09:30:00Z,30.2791,-87.5561,1.252,6.01,1111122 
DISL,ioos:station:DISL:PPTA:1,2012-06-03T10:00:00Z,30.2791,-87.5561,1.278,6.26,1111122 
DISL,ioos:station:DISL:PPTA:1,2012-06-03T10:30:00Z,30.2791,-87.5561,1.305,6.2,1111122 
DISL,ioos:station:DISL:PPTA:1,2012-06-03T11:00:00Z,30.2791,-87.5561,1.337,6.23,1111122 
DISL,ioos:station:DISL:PPTA:1,2012-06-03T11:30:00Z,30.2791,-87.5561,1.36,6.33,1111122 
DISL,ioos:station:DISL:PPTA:1,2012-06-03T12:00:00Z,30.2791,-87.5561,1.372,6.18,1111122 
DISL,ioos:station:DISL:PPTA:1,2012-06-03T12:30:00Z,30.2791,-87.5561,1.379,6.34,1111122 
DISL,ioos:station:DISL:PPTA:1,2012-06-03T13:00:00Z,30.2791,-87.5561,1.378,6.68,1111122 
DISL,ioos:station:DISL:PPTA:1,2012-06-03T13:30:00Z,30.2791,-87.5561,1.384,6.78,1111122 
DISL,ioos:station:DISL:PPTA:1,2012-06-03T14:00:00Z,30.2791,-87.5561,1.392,6.89,1111122 
DISL,ioos:station:DISL:PPTA:1,2012-06-03T14:30:00Z,30.2791,-87.5561,1.38,6.73,1111122 
DISL,ioos:station:DISL:PPTA:1,2012-06-03T15:00:00Z,30.2791,-87.5561,1.385,6.97,1111122 
DISL,ioos:station:DISL:PPTA:1,2012-06-03T15:30:00Z,30.2791,-87.5561,1.384,6.71,1111122 
DISL,ioos:station:DISL:PPTA:1,2012-06-03T16:00:00Z,30.2791,-87.5561,1.366,7.22,1111122 
DISL,ioos:station:DISL:PPTA:1,2012-06-03T16:30:00Z,30.2791,-87.5561,1.349,6.85,1111122 
DISL,ioos:station:DISL:PPTA:1,2012-06-03T17:00:00Z,30.2791,-87.5561,1.316,7.09,1111122 
DISL,ioos:station:DISL:PPTA:1,2012-06-03T17:30:00Z,30.2791,-87.5561,1.275,6.85,1111122 
DISL,ioos:station:DISL:PPTA:1,2012-06-03T18:00:00Z,30.2791,-87.5561,1.236,6.76,1111122 
DISL,ioos:station:DISL:PPTA:1,2012-06-03T18:30:00Z,30.2791,-87.5561,1.201,7.04,1111122 
DISL,ioos:station:DISL:PPTA:1,2012-06-03T19:00:00Z,30.2791,-87.5561,1.173,7.07,1111122 
DISL,ioos:station:DISL:PPTA:1,2012-06-03T19:30:00Z,30.2791,-87.5561,1.141,7.49,1111122 
DISL,ioos:station:DISL:PPTA:1,2012-06-03T20:00:00Z,30.2791,-87.5561,1.134,7.49,1111122 
DISL,ioos:station:DISL:PPTA:1,2012-06-03T20:30:00Z,30.2791,-87.5561,1.106,7.54,1111122 
DISL,ioos:station:DISL:PPTA:1,2012-06-03T21:00:00Z,30.2791,-87.5561,1.083,7.28,1111122 
DISL,ioos:station:DISL:PPTA:1,2012-06-03T21:30:00Z,30.2791,-87.5561,1.068,7.33,1111122 
DISL,ioos:station:DISL:PPTA:1,2012-06-03T22:00:00Z,30.2791,-87.5561,1.045,7.35,1111122 
DISL,ioos:station:DISL:PPTA:1,2012-06-03T22:30:00Z,30.2791,-87.5561,1.025,7.38,1111122 
DISL,ioos:station:DISL:PPTA:1,2012-06-03T23:00:00Z,30.2791,-87.5561,1.019,7.31,1111122 
DISL,ioos:station:DISL:PPTA:1,2012-06-03T23:30:00Z,30.2791,-87.5561,1.004,7.31,1111122 
DISL,ioos:station:DISL:PPTA:1,2012-06-04T00:00:00Z,30.2791,-87.5561,0.988,7.28,1111122 
DISL,ioos:station:DISL:PPTA:1,2012-06-04T00:30:00Z,30.2791,-87.5561,0.988,7.13,1111122 
DISL,ioos:station:DISL:PPTA:1,2012-06-04T01:00:00Z,30.2791,-87.5561,0.982,7.17,1111122 
DISL,ioos:station:DISL:PPTA:1,2012-06-04T01:30:00Z,30.2791,-87.5561,0.974,7.01,1111122 
DISL,ioos:station:DISL:PPTA:1,2012-06-04T02:00:00Z,30.2791,-87.5561,0.98,6.89,1111122 
DISL,ioos:station:DISL:PPTA:1,2012-06-04T02:30:00Z,30.2791,-87.5561,0.988,6.87,1111122 
DISL,ioos:station:DISL:PPTA:1,2012-06-04T03:00:00Z,30.2791,-87.5561,1.008,6.88,1111122 
DISL,ioos:station:DISL:PPTA:1,2012-06-04T03:30:00Z,30.2791,-87.5561,1.03,6.67,1111122 
DISL,ioos:station:DISL:PPTA:1,2012-06-04T04:00:00Z,30.2791,-87.5561,1.045,6.59,1111122 
DISL,ioos:station:DISL:PPTA:1,2012-06-04T04:30:00Z,30.2791,-87.5561,1.065,6.17,1111122 
DISL,ioos:station:DISL:PPTA:1,2012-06-04T05:00:00Z,30.2791,-87.5561,1.07,5.96,1111122 
DISL,ioos:station:DISL:PPTA:1,2012-06-04T05:30:00Z,30.2791,-87.5561,1.07,6.29,1111122 
DISL,ioos:station:DISL:PPTA:1,2012-06-04T06:00:00Z,30.2791,-87.5561,1.084,6.35,1111122 
DISL,ioos:station:DISL:PPTA:1,2012-06-04T06:30:00Z,30.2791,-87.5561,1.086,5.76,1111122 
DISL,ioos:station:DISL:PPTA:1,2012-06-04T07:00:00Z,30.2791,-87.5561,1.097,5.52,1111122 
DISL,ioos:station:DISL:PPTA:1,2012-06-04T07:30:00Z,30.2791,-87.5561,1.126,6.16,1111122 
DISL,ioos:station:DISL:PPTA:1,2012-06-04T08:00:00Z,30.2791,-87.5561,1.137,5.76,1111122 
DISL,ioos:station:DISL:PPTA:1,2012-06-04T08:30:00Z,30.2791,-87.5561,1.166,5.69,1111122 
DISL,ioos:station:DISL:PPTA:1,2012-06-04T09:00:00Z,30.2791,-87.5561,1.187,5.93,1111122 
DISL,ioos:station:DISL:PPTA:1,2012-06-04T09:30:00Z,30.2791,-87.5561,1.204,5.62,1111122 
DISL,ioos:station:DISL:PPTA:1,2012-06-04T10:00:00Z,30.2791,-87.5561,1.244,5.95,1111122 
DISL,ioos:station:DISL:PPTA:1,2012-06-04T10:30:00Z,30.2791,-87.5561,1.266,5.99,1111122 
DISL,ioos:station:DISL:PPTA:1,2012-06-04T11:00:00Z,30.2791,-87.5561,1.305,5.98,1111122 
DISL,ioos:station:DISL:PPTA:1,2012-06-04T11:30:00Z,30.2791,-87.5561,1.331,6.01,1111122 
DISL,ioos:station:DISL:PPTA:1,2012-06-04T12:00:00Z,30.2791,-87.5561,1.354,5.95,1111122 
DISL,ioos:station:DISL:PPTA:1,2012-06-04T12:30:00Z,30.2791,-87.5561,1.374,6.18,1111122 
DISL,ioos:station:DISL:PPTA:1,2012-06-04T13:00:00Z,30.2791,-87.5561,1.374,6.36,1111122 
DISL,ioos:station:DISL:PPTA:1,2012-06-04T13:30:00Z,30.2791,-87.5561,1.397,6.21,1111122 
DISL,ioos:station:DISL:PPTA:1,2012-06-04T14:00:00Z,30.2791,-87.5561,1.399,6.45,1111122 
DISL,ioos:station:DISL:PPTA:1,2012-06-04T14:30:00Z,30.2791,-87.5561,1.389,6.45,1111122 
DISL,ioos:station:DISL:PPTA:1,2012-06-04T15:00:00Z,30.2791,-87.5561,1.383,6.64,1111122 
DISL,ioos:station:DISL:PPTA:1,2012-06-04T15:30:00Z,30.2791,-87.5561,1.38,6.53,1111122 
DISL,ioos:station:DISL:PPTA:1,2012-06-04T16:00:00Z,30.2791,-87.5561,1.357,6.94,1111122 
DISL,ioos:station:DISL:PPTA:1,2012-06-04T16:30:00Z,30.2791,-87.5561,1.358,6.98,1111122 
DISL,ioos:station:DISL:PPTA:1,2012-06-04T17:00:00Z,30.2791,-87.5561,1.356,7.48,1111122 
DISL,ioos:station:DISL:PPTA:1,2012-06-04T17:30:00Z,30.2791,-87.5561,1.335,7.56,1111122 
DISL,ioos:station:DISL:PPTA:1,2012-06-04T18:00:00Z,30.2791,-87.5561,1.306,7.49,1111122 
DISL,ioos:station:DISL:PPTA:1,2012-06-04T18:30:00Z,30.2791,-87.5561,1.248,7.65,1111122 
DISL,ioos:station:DISL:PPTA:1,2012-06-04T19:00:00Z,30.2791,-87.5561,1.202,7.55,1111122 
DISL,ioos:station:DISL:PPTA:1,2012-06-04T19:30:00Z,30.2791,-87.5561,1.175,7.73,1111122 
DISL,ioos:station:DISL:PPTA:1,2012-06-04T20:00:00Z,30.2791,-87.5561,1.151,7.72,1111122 
DISL,ioos:station:DISL:PPTA:1,2012-06-04T20:30:00Z,30.2791,-87.5561,1.133,7.66,1111122 
DISL,ioos:station:DISL:PPTA:1,2012-06-04T21:00:00Z,30.2791,-87.5561,1.1,7.96,1111122 
DISL,ioos:station:DISL:PPTA:1,2012-06-04T21:30:00Z,30.2791,-87.5561,1.064,7.94,1111122 
DISL,ioos:station:DISL:PPTA:1,2012-06-04T22:00:00Z,30.2791,-87.5561,1.042,7.63,1111122 
DISL,ioos:station:DISL:PPTA:1,2012-06-04T22:30:00Z,30.2791,-87.5561,1.037,7.74,1111122 
DISL,ioos:station:DISL:PPTA:1,2012-06-04T23:00:00Z,30.2791,-87.5561,1.021,7.67,1111122 
DISL,ioos:station:DISL:PPTA:1,2012-06-04T23:30:00Z,30.2791,-87.5561,1.001,7.76,1111122 
DISL,ioos:station:DISL:PPTA:1,2012-06-05T00:00:00Z,30.2791,-87.5561,0.993,7.15,1111122 
DISL,ioos:station:DISL:PPTA:1,2012-06-05T00:30:00Z,30.2791,-87.5561,0.981,7.14,1111122 
DISL,ioos:station:DISL:PPTA:1,2012-06-05T01:00:00Z,30.2791,-87.5561,0.955,7.0,1111122 
DISL,ioos:station:DISL:PPTA:1,2012-06-05T01:30:00Z,30.2791,-87.5561,0.945,6.97,1111122 
DISL,ioos:station:DISL:PPTA:1,2012-06-05T02:00:00Z,30.2791,-87.5561,0.954,6.71,1111122 
DISL,ioos:station:DISL:PPTA:1,2012-06-05T02:30:00Z,30.2791,-87.5561,0.968,6.77,1111122 
DISL,ioos:station:DISL:PPTA:1,2012-06-05T03:00:00Z,30.2791,-87.5561,0.968,6.48,1111122 
DISL,ioos:station:DISL:PPTA:1,2012-06-05T03:30:00Z,30.2791,-87.5561,0.996,6.56,1111122 
DISL,ioos:station:DISL:PPTA:1,2012-06-05T04:00:00Z,30.2791,-87.5561,1.017,6.41,1111122 
DISL,ioos:station:DISL:PPTA:1,2012-06-05T04:30:00Z,30.2791,-87.5561,1.03,6.56,1111122 
DISL,ioos:station:DISL:PPTA:1,2012-06-05T05:00:00Z,30.2791,-87.5561,1.057,6.14,1111122 
DISL,ioos:station:DISL:PPTA:1,2012-06-05T05:30:00Z,30.2791,-87.5561,1.083,6.2,1111122 
DISL,ioos:station:DISL:PPTA:1,2012-06-05T06:00:00Z,30.2791,-87.5561,1.102,5.62,1111122 
DISL,ioos:station:DISL:PPTA:1,2012-06-05T06:30:00Z,30.2791,-87.5561,1.09,5.73,1111122 
DISL,ioos:station:DISL:PPTA:1,2012-06-05T07:00:00Z,30.2791,-87.5561,1.085,5.42,1111122 
DISL,ioos:station:DISL:PPTA:1,2012-06-05T07:30:00Z,30.2791,-87.5561,1.122,6.03,1111122 
DISL,ioos:station:DISL:PPTA:1,2012-06-05T08:00:00Z,30.2791,-87.5561,1.125,6.6,1111122 
DISL,ioos:station:DISL:PPTA:1,2012-06-05T08:30:00Z,30.2791,-87.5561,1.145,6.11,1111122 
DISL,ioos:station:DISL:PPTA:1,2012-06-05T09:00:00Z,30.2791,-87.5561,1.18,6.05,1111122 
DISL,ioos:station:DISL:PPTA:1,2012-06-05T09:30:00Z,30.2791,-87.5561,1.211,6.27,1111122 
DISL,ioos:station:DISL:PPTA:1,2012-06-05T10:00:00Z,30.2791,-87.5561,1.232,6.01,1111122 
DISL,ioos:station:DISL:PPTA:1,2012-06-05T10:30:00Z,30.2791,-87.5561,1.267,5.94,1111122 
DISL,ioos:station:DISL:PPTA:1,2012-06-05T11:00:00Z,30.2791,-87.5561,1.293,5.69,1111122 
DISL,ioos:station:DISL:PPTA:1,2012-06-05T11:30:00Z,30.2791,-87.5561,1.327,6.04,1111122 
DISL,ioos:station:DISL:PPTA:1,2012-06-05T12:00:00Z,30.2791,-87.5561,1.344,5.96,1111122 
DISL,ioos:station:DISL:PPTA:1,2012-06-05T12:30:00Z,30.2791,-87.5561,1.387,5.93,1111122 
DISL,ioos:station:DISL:PPTA:1,2012-06-05T13:00:00Z,30.2791,-87.5561,1.398,6.01,1111122 
DISL,ioos:station:DISL:PPTA:1,2012-06-05T13:30:00Z,30.2791,-87.5561,1.418,6.27,1111122 
DISL,ioos:station:DISL:PPTA:1,2012-06-05T14:00:00Z,30.2791,-87.5561,1.44,6.33,1111122 
DISL,ioos:station:DISL:PPTA:1,2012-06-05T14:30:00Z,30.2791,-87.5561,1.436,6.33,1111122 
DISL,ioos:station:DISL:PPTA:1,2012-06-05T15:00:00Z,30.2791,-87.5561,1.436,6.49,1111122 
DISL,ioos:station:DISL:PPTA:1,2012-06-05T15:30:00Z,30.2791,-87.5561,1.45,6.66,1111122 
DISL,ioos:station:DISL:PPTA:1,2012-06-05T16:00:00Z,30.2791,-87.5561,1.439,6.88,1111122 
DISL,ioos:station:DISL:PPTA:1,2012-06-05T16:30:00Z,30.2791,-87.5561,1.458,6.9,1111122 
DISL,ioos:station:DISL:PPTA:1,2012-06-05T17:00:00Z,30.2791,-87.5561,1.456,7.05,1111122 
DISL,ioos:station:DISL:PPTA:1,2012-06-05T17:30:00Z,30.2791,-87.5561,1.435,7.02,1111122 
DISL,ioos:station:DISL:PPTA:1,2012-06-05T18:00:00Z,30.2791,-87.5561,1.411,7.08,1111122 
DISL,ioos:station:DISL:PPTA:1,2012-06-05T18:30:00Z,30.2791,-87.5561,1.389,6.99,1111122 
DISL,ioos:station:DISL:PPTA:1,2012-06-05T19:00:00Z,30.2791,-87.5561,1.358,7.14,1111122 
DISL,ioos:station:DISL:PPTA:1,2012-06-05T19:30:00Z,30.2791,-87.5561,1.337,6.88,1111122 
DISL,ioos:station:DISL:PPTA:1,2012-06-05T20:00:00Z,30.2791,-87.5561,1.298,7.11,1111122 
DISL,ioos:station:DISL:PPTA:1,2012-06-05T20:30:00Z,30.2791,-87.5561,1.249,7.53,1111122 
DISL,ioos:station:DISL:PPTA:1,2012-06-05T21:00:00Z,30.2791,-87.5561,1.215,7.05,1111122 
DISL,ioos:station:DISL:PPTA:1,2012-06-05T21:30:00Z,30.2791,-87.5561,1.18,7.35,1111122 
DISL,ioos:station:DISL:PPTA:1,2012-06-05T22:00:00Z,30.2791,-87.5561,1.155,7.22,1111122 
DISL,ioos:station:DISL:PPTA:1,2012-06-05T22:30:00Z,30.2791,-87.5561,1.139,7.37,1111122 
DISL,ioos:station:DISL:PPTA:1,2012-06-05T23:00:00Z,30.2791,-87.5561,1.125,7.08,1111122 
DISL,ioos:station:DISL:PPTA:1,2012-06-05T23:30:00Z,30.2791,-87.5561,1.14,6.96,1111122 
DISL,ioos:station:DISL:PPTA:1,2012-06-06T00:00:00Z,30.2791,-87.5561,1.106,6.97,1111122 
DISL,ioos:station:DISL:PPTA:1,2012-06-06T00:30:00Z,30.2791,-87.5561,1.108,6.72,1111122 
DISL,ioos:station:DISL:PPTA:1,2012-06-06T01:00:00Z,30.2791,-87.5561,1.093,6.73,1111122 
DISL,ioos:station:DISL:PPTA:1,2012-06-06T01:30:00Z,30.2791,-87.5561,1.063,6.7,1111122 
DISL,ioos:station:DISL:PPTA:1,2012-06-06T02:00:00Z,30.2791,-87.5561,1.069,6.67,1111122 
DISL,ioos:station:DISL:PPTA:1,2012-06-06T02:30:00Z,30.2791,-87.5561,1.078,6.75,1111122 
DISL,ioos:station:DISL:PPTA:1,2012-06-06T03:00:00Z,30.2791,-87.5561,1.071,6.6,1111122 
DISL,ioos:station:DISL:PPTA:1,2012-06-06T03:30:00Z,30.2791,-87.5561,1.052,6.37,1111122 
DISL,ioos:station:DISL:PPTA:1,2012-06-06T04:00:00Z,30.2791,-87.5561,1.062,6.57,1111122 
DISL,ioos:station:DISL:PPTA:1,2012-06-06T04:30:00Z,30.2791,-87.5561,1.087,6.45,1111122 
DISL,ioos:station:DISL:PPTA:1,2012-06-06T05:00:00Z,30.2791,-87.5561,1.094,6.32,1111122 
DISL,ioos:station:DISL:PPTA:1,2012-06-06T05:30:00Z,30.2791,-87.5561,1.085,6.36,1111122 
DISL,ioos:station:DISL:PPTA:1,2012-06-06T06:00:00Z,30.2791,-87.5561,1.084,6.25,1111122 
DISL,ioos:station:DISL:PPTA:1,2012-06-06T06:30:00Z,30.2791,-87.5561,1.118,6.11,1111122 
DISL,ioos:station:DISL:PPTA:1,2012-06-06T07:00:00Z,30.2791,-87.5561,1.147,5.97,1111122 
DISL,ioos:station:DISL:PPTA:1,2012-06-06T07:30:00Z,30.2791,-87.5561,1.155,5.93,1111122 
DISL,ioos:station:DISL:PPTA:1,2012-06-06T08:00:00Z,30.2791,-87.5561,1.132,5.36,1111122 
DISL,ioos:station:DISL:PPTA:1,2012-06-06T08:30:00Z,30.2791,-87.5561,1.146,5.46,1111122 
DISL,ioos:station:DISL:PPTA:1,2012-06-06T09:00:00Z,30.2791,-87.5561,1.167,5.42,1111122 
DISL,ioos:station:DISL:PPTA:1,2012-06-06T09:30:00Z,30.2791,-87.5561,1.187,5.57,1111122 
DISL,ioos:station:DISL:PPTA:1,2012-06-06T10:00:00Z,30.2791,-87.5561,1.214,5.18,1111122 
DISL,ioos:station:DISL:PPTA:1,2012-06-06T10:30:00Z,30.2791,-87.5561,1.244,5.5,1111122 
DISL,ioos:station:DISL:PPTA:1,2012-06-06T11:00:00Z,30.2791,-87.5561,1.269,5.6,1111122 
DISL,ioos:station:DISL:PPTA:1,2012-06-06T11:30:00Z,30.2791,-87.5561,1.301,5.42,1111122 
DISL,ioos:station:DISL:PPTA:1,2012-06-06T12:00:00Z,30.2791,-87.5561,1.309,5.63,1111122 
DISL,ioos:station:DISL:PPTA:1,2012-06-06T12:30:00Z,30.2791,-87.5561,1.35,5.63,1111122 
DISL,ioos:station:DISL:PPTA:1,2012-06-06T13:00:00Z,30.2791,-87.5561,1.371,5.84,1111122 
DISL,ioos:station:DISL:PPTA:1,2012-06-06T13:30:00Z,30.2791,-87.5561,1.392,6.07,1111122 
DISL,ioos:station:DISL:PPTA:1,2012-06-06T14:00:00Z,30.2791,-87.5561,1.413,6.12,1111122 
DISL,ioos:station:DISL:PPTA:1,2012-06-06T14:30:00Z,30.2791,-87.5561,1.427,6.16,1111122 
DISL,ioos:station:DISL:PPTA:1,2012-06-06T15:00:00Z,30.2791,-87.5561,1.428,6.07,1111122 
DISL,ioos:station:DISL:PPTA:1,2012-06-06T15:30:00Z,30.2791,-87.5561,1.417,6.44,1111122 